Location: Newark
(22.3060°N, 114.2134°E)
Time: 12:56:29
(UTC+00:00)

ISS - Pass Details

Date: 10 April 2020
Orbit: 417 x 419 km, 51.6° (Epoch: 03 June)

Event Time Altitude Azimuth Distance (km) Brightness Sun altitude
Rises 12:09:14 0° 300° (WNW) 2,351 1.5 -20.5°
Reaches altitude 10° 12:11:45 10° 280° (W) 1,485 0.2 -21.1°
Maximum altitude 12:14:07 18° 235° (SW) 1,089 -1.3 -21.6°
Enters shadow 12:15:20 15° 207° (SSW) 1,206 -1.4 -21.8°
